Find Kuiper-00159

NORAD ID: 67764 Int'l Des: 2026-030 Owner: KUIP Country: US Constellation: amazon-leo operational
LEOCIRCULAR

Current View

Loading 3D Globe...

About Kuiper-00159

Description loading...

Upcoming Passes

Passes for default location (London). Set your location on the main map for personalized predictions.

Altitude History

Loading altitude history...

Two-Line Element Set

1 67764U 26030A 26145.88167579 .00021742 00000-0 58338-3 0 9996
2 67764 51.8827 206.2750 0006401 330.0047 30.0573 15.37874196 16964
Epoch: May 25, 2026 • Age: 14 hours

Current Status

Altitude 459.7 km
Velocity 7.64 km/s
Sub-Earth Point 51.27°N, 137.31°W
Launch Date Feb 12, 2026
Age 0.2 years
Type internet

Technical Details

Classification Payload
Mass 490.00 kg
Dry Mass 490.00 kg
Total Mass 490.00 kg
Length 1.80 m
Diameter 0.70 m
Span 5.00 m
Shape Box + 2 pan
Manufacturer KUIP
Bus Type Kuiper
Phase Status In Orbit
Owner/State KUIP/US

Most Searched